IK1EJA-5 Weather Reports


time (UTC)temp
F
wind
direction
speed
knots
gust
knots
rain 1hr
in
rain 24hr
in
rain mn
in
humidity
%
barometer
mb
20260506215602 0 82 0.0 0.0 0.00 0.00 1.29 99 1012.7
20260506215102 0 198 0.9 0.9 0.00 0.00 1.29 99 1012.7
20260506214602 0 78 0.0 0.0 0.00 0.00 1.29 99 1012.5
20260506214103 0 77 0.0 0.9 0.00 0.00 1.29 99 1012.6
20260506213602 0 163 0.9 0.9 0.00 0.00 1.29 99 1012.7
20260506213103 0 222 0.9 0.9 0.00 0.00 1.29 99 1012.7
20260506212603 0 82 0.0 0.9 0.00 0.00 1.29 99 1012.5
20260506212102 0 65 0.0 0.9 0.00 0.00 1.29 99 1012.5
20260506211603 0 222 0.9 0.9 0.00 0.00 1.29 99 1012.5
20260506211102 0 86 0.0 0.0 0.00 0.00 1.29 99 1012.5
20260506210603 0 47 0.0 0.0 0.00 0.00 1.29 99 1012.6
20260506205602 0 53 0.0 0.0 0.00 0.00 1.29 99 1012.5
20260506205102 0 77 0.0 0.0 0.00 0.00 1.29 99 1012.5
20260506204602 0 83 0.0 0.9 0.00 0.00 1.29 99 1012.7
20260506204103 0 206 0.9 0.9 0.00 0.00 1.29 99 1012.6
20260506203602 0 50 0.0 0.9 0.00 0.00 1.29 99 1012.5
20260506203103 0 7 0.0 0.0 0.00 0.00 1.29 99 1012.5
20260506202603 0 335 0.9 0.9 0.00 0.00 1.29 99 1012.5
20260506202103 0 49 0.0 0.0 0.00 0.00 1.29 99 1012.3
20260506201603 0 44 0.0 0.0 0.00 0.00 1.29 99 1012.3
20260506201102 0 61 0.0 0.0 0.00 0.00 1.29 99 1012.5
20260506200603 0 167 0.0 0.9 0.00 0.00 1.29 99 1012.2
20260506195603 0 133 0.9 1.7 0.00 0.00 1.29 99 1012.1
20260506195102 0 164 0.9 0.9 0.00 0.00 1.29 99 1012.0
20260506194603 0 135 1.7 1.7 0.00 0.00 1.29 98 1012.0
20260506194103 0 166 1.7 1.7 0.00 0.00 1.29 99 1011.7
20260506193603 0 81 0.9 1.7 0.00 0.00 1.29 99 1011.8
20260506193103 0 79 0.0 0.9 0.00 0.00 1.29 99 1011.7
20260506192602 0 65 0.0 0.0 0.00 0.00 1.29 99 1011.7
20260506192102 0 187 0.9 0.9 0.00 0.00 1.29 98 1011.5
20260506191602 0 7 0.0 0.0 0.00 0.00 1.29 98 1011.6
20260506191102 0 44 0.9 0.9 0.00 0.00 1.29 98 1011.6
20260506190603 0 118 0.9 0.9 0.00 0.00 1.29 98 1011.2
20260506185602 0 35 0.0 0.0 0.00 0.00 1.29 96 1011.2
20260506185103 0 80 0.0 0.9 0.00 0.00 1.29 95 1011.2
20260506184603 0 56 0.0 0.9 0.00 0.00 1.29 95 1011.2
20260506184103 0 49 0.0 0.0 0.00 0.00 1.29 94 1011.2
20260506183603 0 191 0.9 1.7 0.00 0.00 1.29 93 1011.0
20260506183102 0 100 0.9 0.9 0.00 0.00 1.29 93 1011.0
20260506182602 0 130 0.9 1.7 0.00 0.00 1.29 93 1010.7
20260506182103 0 198 1.7 2.6 0.00 0.00 1.29 93 1010.7
20260506181603 0 157 0.9 0.9 0.00 0.00 1.29 92 1010.8
20260506181102 0 128 0.0 0.9 0.00 0.00 1.29 90 1010.7
20260506180602 0 80 0.0 0.9 0.00 0.00 1.29 90 1010.7
20260506175603 0 119 0.9 1.7 0.00 0.00 1.29 88 1010.7
20260506175103 0 192 3.5 3.5 0.00 0.00 1.29 88 1010.6
20260506174602 0 148 2.6 2.6 0.00 0.00 1.29 88 1010.3
20260506174103 0 128 3.5 4.3 0.00 0.00 1.29 88 1010.3
20260506173603 0 169 1.7 2.6 0.00 0.00 1.29 88 1010.3
20260506173103 0 10 0.9 1.7 0.00 0.00 1.29 88 1010.2
20260506172603 0 173 2.6 3.5 0.00 0.00 1.29 87 1010.1
20260506172102 0 165 4.3 5.2 0.00 0.00 1.29 88 1010.3
20260506171602 0 184 2.6 3.5 0.00 0.00 1.29 87 1010.3
20260506171102 0 172 5.2 7.8 0.00 0.00 1.29 87 1010.2
20260506170602 0 118 3.5 3.5 0.00 0.00 1.29 87 1010.2
20260506170104 0 161 1.7 2.6 0.00 0.00 1.29 87 1010.1
20260506165603 0 214 1.7 2.6 0.00 0.00 1.29 87 1010.2
20260506165102 0 36 1.7 1.7 0.00 0.00 1.29 85 1010.2
20260506164603 0 185 2.6 3.5 0.00 0.00 1.29 87 1010.2
20260506164102 0 169 2.6 3.5 0.00 0.00 1.29 86 1010.1
20260506163602 0 12 0.0 0.9 0.00 0.00 1.29 87 1010.2
20260506163102 0 187 4.3 5.2 0.00 0.00 1.29 87 1010.2
20260506162603 0 145 3.5 4.3 0.00 0.00 1.29 88 1010.2
20260506162103 0 114 4.3 5.2 0.00 0.00 1.29 86 1010.2
20260506161602 0 167 4.3 5.2 0.00 0.00 1.29 87 1010.2
20260506161102 0 174 4.3 5.2 0.00 0.00 1.29 86 1010.2
20260506160603 0 123 1.7 2.6 0.00 0.00 1.29 86 1010.1
20260506155602 0 152 3.5 4.3 0.00 0.00 1.29 86 1010.2
20260506155102 0 180 0.0 0.9 0.00 0.00 1.29 87 1010.2
20260506154603 0 146 1.7 1.7 0.00 0.00 1.29 88 1010.1
20260506154103 0 161 2.6 2.6 0.00 0.00 1.29 87 1010.2
20260506153602 0 172 4.3 5.2 0.00 0.00 1.29 87 1010.0
20260506153104 0 185 3.5 4.3 0.00 0.00 1.29 88 1009.8
20260506152602 0 157 1.7 2.6 0.00 0.00 1.29 87 1009.8
20260506152103 0 190 6.1 7.8 0.00 0.00 1.29 86 1009.8
20260506151602 0 149 6.1 7.8 0.00 0.00 1.29 85 1009.7
20260506151102 0 81 0.0 0.0 0.00 0.00 1.29 84 1010.0
20260506150602 0 173 3.5 3.5 0.00 0.00 1.29 82 1010.0
20260506145602 0 204 1.7 1.7 0.00 0.00 1.29 82 1010.0
20260506145103 0 118 2.6 2.6 0.00 0.00 1.29 82 1009.8
20260506144602 0 161 4.3 5.2 0.00 0.00 1.29 84 1010.0
20260506144104 0 72 0.0 0.0 0.00 0.00 1.29 82 1009.8
20260506143604 0 183 4.3 5.2 0.00 0.00 1.29 82 1009.7
20260506143102 0 137 1.7 3.5 0.00 0.00 1.29 84 1009.7
20260506142603 0 183 2.6 2.6 0.00 0.00 1.29 84 1010.0
20260506142102 0 177 3.5 4.3 0.00 0.00 1.29 83 1009.6
20260506141603 0 188 2.6 3.5 0.00 0.00 1.29 82 1009.7
20260506141103 0 176 2.6 2.6 0.00 0.00 1.29 83 1009.7
20260506140603 0 165 4.3 5.2 0.00 0.00 1.29 85 1009.8
20260506135603 0 146 1.7 1.7 0.00 0.00 1.29 87 1009.8
20260506135103 0 142 1.7 2.6 0.00 0.00 1.29 86 1009.7
20260506134603 0 98 0.9 1.7 0.00 0.00 1.29 88 1010.0
20260506134103 0 149 6.1 7.8 0.00 0.00 1.29 88 1010.2
20260506133602 0 114 0.9 1.7 0.00 0.00 1.29 88 1010.2
20260506133103 0 107 4.3 5.2 0.00 0.00 1.29 89 1010.1
20260506132603 0 112 4.3 5.2 0.00 0.00 1.29 88 1010.1
20260506132103 0 165 3.5 4.3 0.00 0.00 1.29 89 1010.1
20260506131603 0 135 2.6 3.5 0.00 0.00 1.29 89 1010.1
20260506131103 0 182 1.7 1.7 0.00 0.00 1.29 90 1010.2
20260506130603 0 144 4.3 5.2 0.00 0.00 1.29 90 1009.8
20260506130103 0 147 3.5 4.3 0.00 0.00 1.29 90 1010.2
20260506125603 0 108 5.2 7.8 0.00 0.00 1.29 89 1010.0
20260506125102 0 181 3.5 4.3 0.00 0.00 1.29 88 1010.0
20260506124603 0 187 3.5 4.3 0.00 0.00 1.29 88 1010.1
20260506124102 0 172 5.2 7.0 0.00 0.00 1.29 86 1009.7
20260506123603 0 136 2.6 3.5 0.00 0.00 1.29 86 1009.8
20260506123103 0 116 3.5 4.3 0.00 0.00 1.29 87 1010.1
20260506122603 0 169 1.7 1.7 0.00 0.00 1.29 87 1010.0
20260506122103 0 161 3.5 3.5 0.00 0.00 1.29 85 1010.1
20260506121603 0 185 3.5 4.3 0.00 0.00 1.29 86 1009.8
20260506121103 0 174 6.1 7.8 0.00 0.00 1.29 84 1010.0
20260506120603 0 182 6.1 7.8 0.00 0.00 1.29 84 1009.8
20260506115602 0 189 4.3 4.3 0.00 0.00 1.29 84 1010.0
20260506115102 0 182 7.0 8.7 0.00 0.00 1.29 82 1010.0
20260506114603 0 198 1.7 2.6 0.00 0.00 1.29 82 1010.0
20260506114102 0 135 3.5 4.3 0.00 0.00 1.29 83 1009.7
20260506113603 0 179 5.2 7.0 0.00 0.00 1.29 82 1010.1
20260506113103 0 212 1.7 2.6 0.00 0.00 1.29 81 1010.0
20260506112603 0 148 2.6 2.6 0.00 0.00 1.29 83 1010.0
20260506112102 0 125 1.7 2.6 0.00 0.00 1.29 82 1009.8
20260506111603 0 90 1.7 2.6 0.00 0.00 1.29 85 1010.1
20260506111103 0 186 3.5 4.3 0.00 0.00 1.29 85 1010.2
20260506110603 0 218 2.6 2.6 0.00 0.00 1.29 87 1010.1
20260506105603 0 172 5.2 7.8 0.00 0.00 1.29 87 1010.1
20260506105103 0 9 0.0 0.9 0.00 0.00 1.29 88 1010.0
20260506104602 0 139 7.0 10.4 0.00 0.00 1.29 88 1010.0
20260506104102 0 152 2.6 4.3 0.00 0.00 1.29 89 1010.0
20260506103603 0 187 7.8 10.4 0.00 0.00 1.29 89 1009.8
20260506103102 0 67 1.7 3.5 0.00 0.00 1.29 89 1009.7
20260506102602 0 57 3.5 3.5 0.00 0.00 1.29 87 1009.8
20260506102103 0 187 2.6 3.5 0.00 0.00 1.29 86 1009.7
20260506101604 0 174 0.9 1.7 0.00 0.00 1.29 90 1009.7
20260506101102 0 55 1.7 2.6 0.00 0.00 1.29 89 1009.7
20260506100602 0 39 2.6 4.3 0.00 0.00 1.29 88 1009.7
20260506095602 0 343 0.0 0.9 0.00 0.00 1.29 91 1009.5
20260506095103 0 248 4.3 5.2 0.00 0.00 1.29 92 1009.7
20260506094602 0 24 0.9 1.7 0.00 0.00 1.29 92 1009.3
20260506094103 0 309 5.2 5.2 0.00 0.00 1.29 92 1009.2
20260506093604 0 345 0.9 0.9 0.00 0.00 1.29 93 1009.3
20260506093102 0 159 4.3 7.0 0.00 0.00 1.29 93 1009.6
20260506092602 0 89 5.2 7.0 0.00 0.00 1.29 93 1009.3
20260506092103 0 151 5.2 10.4 0.00 0.00 1.29 93 1009.2
20260506091603 0 178 0.9 1.7 0.00 0.00 1.29 93 1009.2
20260506091102 0 133 0.0 0.9 0.00 0.00 1.29 94 1009.3
20260506090602 0 230 6.1 7.8 0.00 0.00 1.29 94 1009.5
20260506085602 0 80 11.3 15.6 0.00 0.00 1.29 94 1009.2
20260506085103 0 151 7.8 10.4 0.00 0.00 1.29 96 1009.0
20260506084603 0 126 6.1 8.7 0.00 0.00 1.29 95 1009.1
20260506084102 0 91 4.3 7.8 0.00 0.00 1.29 96 1008.7
20260506083604 0 38 4.3 7.0 0.00 0.00 1.29 96 1008.5
20260506083102 0 174 6.1 7.8 0.00 0.00 1.29 96 1008.3
20260506082602 0 227 4.3 5.2 0.00 0.00 1.29 96 1008.7
20260506082103 0 40 6.1 9.6 0.00 0.00 1.29 96 1008.7
20260506081603 0 176 17.4 22.6 0.00 0.00 1.29 94 1008.5
20260506081103 0 128 3.5 4.3 0.00 0.00 1.29 95 1008.3
20260506080602 0 136 13.9 17.4 0.00 0.00 1.29 96 1008.5
20260506073102 0 126 4.3 7.0 0.00 0.00 1.29 99 1008.3
20260506072605 0 198 3.5 4.3 0.00 0.00 1.29 99 1008.3
20260506072103 0 191 11.3 14.8 0.00 0.00 1.29 99 1008.5
20260506071602 0 178 3.5 4.3 0.00 0.00 1.29 99 1008.6
20260506071103 0 158 7.0 8.7 0.00 0.00 1.29 99 1008.6
20260506070603 0 156 1.7 2.6 0.00 0.00 1.29 99 1008.5
20260506062103 0 177 1.7 1.7 0.07 0.00 1.29 99 1008.5
20260506061603 0 73 0.0 0.9 0.03 0.00 1.25 99 1008.6
20260506061102 0 167 0.9 1.7 0.00 0.00 1.21 99 1008.7
20260506060603 0 24 0.0 0.0 0.00 0.00 1.21 99 1008.5
20260506051102 0 305 1.7 2.6 0.00 0.00 1.19 99 1008.7
20260506050603 0 3 0.9 0.9 0.00 0.00 1.19 99 1009.0
20260506050104 0 308 0.0 0.9 0.00 0.00 1.19 99 1009.2
20260506045102 0 51 0.0 0.9 0.13 0.00 1.19 99 1009.2
20260506044603 0 297 0.9 0.9 0.13 0.00 1.19 99 1008.8
20260506044102 0 285 3.5 3.5 0.13 0.00 1.19 99 1009.2
20260506043603 0 293 0.0 1.7 0.13 0.00 1.19 99 1009.0
20260506043102 0 40 0.0 0.9 0.11 0.00 1.17 99 1009.0
20260506042603 0 7 0.0 0.0 0.04 0.00 1.11 99 1009.2
20260506042102 0 318 1.7 1.7 0.00 0.00 0.17 99 1009.1
20260506041603 0 357 0.9 0.9 0.00 0.00 0.17 99 1008.8
20260506041103 0 22 0.0 0.9 0.00 0.00 0.17 99 1009.1
20260506040603 0 355 0.0 0.0 0.00 0.00 0.17 99 1009.3
20260506035603 0 5 0.0 0.0 0.01 0.00 0.17 99 1009.2
20260506035103 0 307 0.9 0.9 0.01 0.00 0.17 99 1009.6
20260506034602 0 43 0.0 0.0 0.01 0.00 0.17 99 1009.6
20260506034102 0 157 1.7 1.7 0.01 0.00 0.17 99 1009.7
20260506033603 0 128 0.0 0.9 0.01 0.00 0.17 99 1009.2
20260506033102 0 325 0.9 0.9 0.01 0.00 0.17 99 1009.3
20260506032603 0 167 0.9 1.7 0.01 0.00 0.17 99 1009.3
20260506032102 0 325 0.0 0.9 0.01 0.00 0.17 99 1009.6
20260506031602 0 63 0.0 0.9 0.01 0.00 0.17 99 1009.5
20260506031103 0 21 0.0 0.0 0.01 0.00 0.17 99 1009.6
20260506030603 0 2 0.0 0.9 0.00 0.00 0.16 99 1009.7
20260506030103 0 296 2.6 3.5 0.00 0.00 0.16 99 1009.5
20260506025603 0 14 1.7 2.6 0.78 0.00 0.15 99 1009.3
20260506025102 0 347 1.7 2.6 0.65 0.00 0.92 99 1010.1
20260506024603 0 261 3.5 4.3 0.54 0.00 0.81 99 1009.6
20260506024102 0 38 1.7 2.6 0.34 0.00 0.61 99 1008.8
20260506023603 0 350 1.7 3.5 0.28 0.00 0.56 99 1009.3
20260506023102 0 2 2.6 5.2 0.22 0.00 0.49 99 1009.0
20260506022603 0 337 1.7 2.6 0.17 0.00 0.44 99 1009.1
20260506022103 0 328 1.7 2.6 0.12 0.00 0.39 99 1009.3
20260506021602 0 326 0.9 0.9 0.10 0.00 0.37 99 1009.3
20260506021103 0 24 0.0 0.9 0.07 0.00 0.34 99 1009.7
20260506020603 0 181 2.6 3.5 0.04 0.00 0.31 99 1009.7
20260506020103 0 18 0.0 0.0 0.01 0.00 0.28 99 1009.5
20260506015603 0 42 0.0 0.9 0.18 0.00 0.20 99 1009.7
20260506015103 0 347 2.6 3.5 0.08 0.00 0.10 99 1009.7
20260506014603 0 37 0.9 0.9 0.07 0.00 0.09 99 1009.7
20260506014103 0 296 3.5 3.5 0.06 0.00 0.08 99 1009.7
20260506013602 0 345 0.9 1.7 0.05 0.00 0.07 99 1009.8
20260506013110 0 16 0.0 0.0 0.04 0.00 0.06 99 1010.1
20260506012603 0 32 0.0 0.0 0.02 0.00 0.04 99 1010.2
20260506012103 0 347 0.0 0.0 0.01 0.00 0.03 99 1010.3
20260506011603 0 2 0.0 0.0 0.01 0.00 0.03 99 1009.8
20260506011103 0 354 0.0 0.9 0.00 0.00 0.02 99 1010.2
20260506010603 0 352 0.0 0.9 0.00 0.00 0.02 99 1010.5
20260506010103 0 32 0.0 0.0 0.00 0.00 0.02 99 1010.2
20260506005603 0 34 0.0 0.0 0.02 0.00 0.02 99 1010.1
20260506005103 0 347 0.0 0.9 0.02 0.00 0.02 99 1010.3
20260506004604 0 152 0.9 0.9 0.02 0.00 0.02 99 1010.5
20260506004102 0 55 0.0 0.9 0.02 0.00 0.02 99 1010.6
20260506003603 0 89 0.9 0.9 0.01 0.00 0.01 99 1010.7
20260506003102 0 324 0.0 0.0 0.01 0.00 0.01 99 1010.6
20260506002602 0 216 1.7 2.6 0.01 0.00 0.01 99 1010.8
20260506002102 0 152 0.0 0.9 0.01 0.00 0.01 99 1010.7
20260506001602 0 200 2.6 2.6 0.00 0.00 0.00 99 1011.0
20260506001103 0 148 3.5 4.3 0.00 0.00 0.00 99 1010.7
20260506000602 0 68 0.0 0.9 0.00 0.00 0.00 99 1010.6
20260505235602 0 328 0.9 0.9 0.00 0.00 0.00 99 1010.8
20260505235103 0 295 0.9 0.9 0.00 0.00 0.00 99 1010.8
20260505234603 0 322 0.9 0.9 0.00 0.00 0.00 99 1011.0
20260505234102 0 325 0.9 1.7 0.00 0.00 0.00 99 1011.1
20260505233603 0 314 0.9 1.7 0.00 0.00 0.00 99 1011.3
20260505233103 0 332 0.9 1.7 0.00 0.00 0.00 99 1011.7
20260505232603 0 44 0.0 0.0 0.00 0.00 0.00 99 1011.7
20260505232102 0 24 0.0 0.0 0.00 0.00 0.00 99 1011.6
20260505231603 0 315 0.9 1.7 0.00 0.00 0.00 99 1011.6
20260505231103 0 352 0.9 0.9 0.00 0.00 0.00 99 1011.6
20260505230602 0 5 0.9 0.9 0.00 0.00 0.00 99 1011.8
20260505225603 0 47 0.0 0.9 0.01 0.00 1.43 99 1011.7
20260505225103 0 358 0.0 0.0 0.01 0.00 1.43 99 1012.2
20260505224602 0 253 0.9 0.9 0.01 0.00 1.43 99 1012.2
20260505224103 0 345 0.0 0.0 0.01 0.00 1.43 99 1012.0
20260505223603 0 46 0.0 0.0 0.01 0.00 1.43 99 1012.2
20260505223103 0 68 0.0 0.0 0.01 0.00 1.43 99 1012.2
20260505222603 0 85 0.9 0.9 0.01 0.00 1.43 99 1012.2
20260505222103 0 55 0.0 0.9 0.00 0.00 1.42 99 1012.3
20260505221602 0 122 0.0 0.9 0.00 0.00 1.42 99 1012.2
20260505221102 0 289 1.7 1.7 0.00 0.00 1.42 99 1012.5
20260505220603 0 24 0.0 0.0 0.00 0.00 1.42 99 1012.5